Regional Weather Roundup
Issued by NWS

Home | Current Version | Previous Version | Graphics & Text | Print | Product List | Glossary On
Versions: 1 2 3 4 5 6 7 8 9 10 11 12 13 14 15 16 17 18 19 20 21 22 23 24 25 26 27 28 29 30 31 32 33 34 35 36 37 38 39 40 41 42 43 44 45 46 47 48 49 50
000
ASUS43 KMPX 221601
RWRMN
WEATHER ROUNDUP FOR MINNESOTA
NATIONAL WEATHER SERVICE TWIN CITIES/CHANHASSEN MN
1000 AM CST SAT NOV 22 2014


NOTE: "FAIR" INDICATES FEW OR NO CLOUDS BELOW 12,000 FEET WITH NO
SIGNIFICANT WEATHER AND/OR OBSTRUCTIONS TO VISIBILITY. N/A MEANS
CURRENT SKY AND/OR WEATHER CONDITIONS ARE NOT AVAILABLE.

MNZ060>063-068>070-221700-
   Twin Cities Metro

CITY           SKY/WX    TMP DP  RH WIND       PRES   REMARKS
TWIN CITIES    CLOUDY    34  33  96 SW10      29.76F FOG     WCI  26
ST PAUL        CLOUDY    35  33  92 S8        29.78F FOG     WCI  29
CRYSTAL        CLOUDY    36  33  89 S9        29.74F FOG
BLAINE         CLOUDY    37  36  93 S10       29.76S FOG
LAKEVILLE      CLOUDY    34  32  93 S3        29.76F FOG
EDEN PRAIRIE   CLOUDY    35  34  96 S12       29.74F FOG     WCI  27
SOUTH ST PAUL  CLOUDY    36  33  91 S8        29.76F FOG
LAKE ELMO      CLOUDY    36  34  93 SW10      29.77S FOG
$$
MNZ001>005-007-008-013>017-022>024-027-028-221700-
   Northwest Minnesota

CITY           SKY/WX    TMP DP  RH WIND       PRES   REMARKS
BEMIDJI        SUNNY     24  23  96 CALM      29.61F
HALLOCK        PTSUNNY   30  27  86 SE5       29.58F WCI  25
ROSEAU         CLOUDY    34  28  80 CALM      29.59F
WARROAD        CLOUDY    34  28  80 CALM      29.60F
THIEF RVR FALL SUNNY     25  23  93 SE5       29.59F WCI  19
CROOKSTON      SUNNY     27  25  93 S9        29.60F WCI  17
FOSSTON        SUNNY     30  25  80 S8        29.59F WCI  23
DETROIT LAKES  SUNNY     32  28  86 S6        29.62F WCI  26
MOORHEAD       SUNNY     32  30  93 S8        29.62S WCI  25
PARK RAPIDS    SUNNY     28  27  96 SE5       29.61F WCI  23
MAHNOMEN       FAIR      31  26  82 S10       29.60F WCI  23
$$
MNZ006-009>011-018-025>026-221700-
   North Central Minnesota

CITY           SKY/WX    TMP DP  RH WIND       PRES   REMARKS
BAUDETTE       CLOUDY    33  29  85 CALM      29.60S
FLAG ISLAND    CLOUDY    28  27  93 CALM      29.59F
INTL FALLS     CLOUDY    34  28  79 SW6       29.61S WCI  29
WASKISH        CLOUDY    36  30  80 CALM      29.62S
BIG FORK       CLOUDY    34  28  80 CALM      29.63F
LONGVILLE      SUNNY     34  28  80 S3        29.63F
GRAND RAPIDS   SUNNY     27  25  93 SE6       29.64F WCI  20
CRANE LAKE     CLOUDY    30  28  93 SW3       29.65S
ORR            CLOUDY    32  27  80 CALM      29.61S
COOK           CLOUDY    30  28  93 SW6       29.64S WCI  24
WALKER         FAIR      30  25  82 CALM      29.62S
$$
MNZ012-019>021-037-221700-
   Northeast Minnesota

CITY           SKY/WX    TMP DP  RH WIND       PRES   REMARKS
DULUTH         CLOUDY    30  27  88 SW9       29.67F FOG     WCI  22
ELY            CLOUDY    28  28 100 SW7       29.63F FOG     WCI  21
HIBBING        CLOUDY    28  25  88 VRB5      29.65F FOG     WCI  23
EVELETH        CLOUDY    30  28  93 SW5       29.66F FOG     WCI  25
DULUTH HARBOR  CLOUDY    34  30  86 CALM      29.71F
TWO HARBORS    SUNNY     34  28  80 SW7       29.67S WCI  28
SILVER BAY     MOSUNNY   34  28  80 SW3       29.66F
GRAND MARAIS     N/A     34  28  79 W8        29.68S WCI  27
G MARAIS ARPRT CLOUDY    27  23  86 SW3       29.62S
$$
MNZ029>031-032-039>041-046>048-054>057-064-221700-
   West Central Minnesota

CITY           SKY/WX    TMP DP  RH WIND       PRES   REMARKS
FERGUS FALLS   SUNNY     30  25  80 SE8       29.65F WCI  23
WHEATON        SUNNY     28  25  86 SE9       29.65F WCI  20
MORRIS         SUNNY     27  25  93 SE8       29.64F WCI  18
ALEXANDRIA     SUNNY     32  27  81 S8        29.66F WCI  25
ELBOW LAKE       N/A     29  26  87 SE8       29.64F WCI  21
WADENA         SUNNY     30  28  93 S5        29.63F WCI  25
GLENWOOD       SUNNY     28  28 100 S8        29.67F WCI  20
APPLETON       SUNNY     34  27  75 SE5       29.66F WCI  30
BENSON         SUNNY     30  27  86 S9        29.67F WCI  22
ORTONVILLE     SUNNY     28  23  80 SE8       29.64F WCI  20
MADISON        SUNNY     34  30  86 S10       29.65F WCI  26
WILLMAR        FAIR      27  25  93 SE6       29.70F FOG     WCI  20
$$
MNZ033>034-036-042>043-049>051-058-059-221700-
   Central Minnesota

CITY           SKY/WX    TMP DP  RH WIND       PRES   REMARKS
ST CLOUD       SUNNY     31  28  89 S9        29.71F FOG     WCI  23
SAUK CENTRE    FAIR      29  26  88 S7        29.68F WCI  22
PAYNESVILLE    SUNNY     28  26  91 SE7       29.71S FOG     WCI  21
AITKIN         SUNNY     36  28  75 S6        29.65F
PINE RIVER     SUNNY     28  28 100 SE5       29.68F FOG     WCI  23
BRAINERD       SUNNY     29  27  92 S6        29.67S FOG     WCI  23
STAPLES        SUNNY     28  27  93 S5        29.64F WCI  23
LONG PRAIRIE   FAIR      28  28 100 S8        29.67F WCI  20
LITTLE FALLS   SUNNY     30  27  86 S5        29.69S FOG     WCI  25
LITCHFIELD     FOG       34  34 100 SW3       29.71S VSB 3/4
BUFFALO        CLOUDY    34  32  93 S6        29.74S FOG     WCI  29
MAPLE LAKE     CLOUDY    34  34  99 S6        29.73S FOG     WCI  29
$$
MNZ037-044-045-052-053-221700-
   East Central Minnesota

CITY           SKY/WX    TMP DP  RH WIND       PRES   REMARKS
PRINCETON      CLOUDY    36  32  87 S9        29.72F FOG
MORA             N/A    N/A N/A N/A MISG        N/A
CAMBRIDGE      CLOUDY    37  28  70 S8        29.71F HAZE
RUSH CITY      CLOUDY    35  32  89 S6        29.73F WCI  30
MOOSE LAKE     CLOUDY    32  30  93 CALM      29.68F FOG
HINCKLEY       CLOUDY    32  32 100 SW9       29.72F FOG     WCI  24
CLOQUET        CLOUDY    30  28  93 SW7       29.67F FOG     WCI  23
MCGREGOR       SUNNY     32  30  93 S8        29.67F WCI  25
$$
MNZ071>073-080-081-089-090-097-098-221700-
   Southwest Minnesota

CITY           SKY/WX    TMP DP  RH WIND       PRES   REMARKS
MONTEVIDEO     SUNNY     36  28  75 SW7       29.69F
GRANITE FALLS  SUNNY     31  28  88 S6        29.71F WCI  26
CANBY          SUNNY     36  31  79 SW8       29.66F
MARSHALL       SUNNY     36  28  75 S12       29.68F
REDWOOD FALLS  CLOUDY    34  33  96 S12       29.72S FOG     WCI  25
OLIVIA         FOG       34  32  93 S10       29.70F VSB 1/4 WCI  26
PIPESTONE      SNOW      32  32 100 SW10      29.70S VSB<1/4 WCI  24
WINDOM         FOG       34  34 100 SW14      29.73F VSB 1/2 WCI  24
WORTHINGTON    CLOUDY    34  34 100 SW16      29.73F VSB 1/4 WCI  23
JACKSON        FOG       34  32  93 SW9       29.74F VSB 3/4 WCI  26
TRACY          CLOUDY    34  33  96 SW14G22   29.70F FOG     WCI  25
SLAYTON        FOG       32  32 100 S10       29.72S VSB 1/4 WCI  24
$$
MNZ065>067-074>077-082>085-091>093-221700-
   South Central Minnesota

CITY           SKY/WX    TMP DP  RH WIND       PRES   REMARKS
MANKATO        CLOUDY    36  30  80 SW8       29.76S
NEW ULM          N/A     34  34 100 S12       29.74S FOG     WCI  25
ST JAMES       CLOUDY    36  34  93 S9        29.75F FOG
FAIRMONT       CLOUDY    36  32  87 SW14      29.75F
GLENCOE        FOG       35  34  99 S9        29.73F VSB 3/4 WCI  27
FARIBAULT      CLOUDY    36  34  93 S9        29.77S FOG
OWATONNA       CLOUDY    36  34  93 S13G18    29.77F FOG
WASECA         FOG       34  32  93 S15       29.78F VSB 1   WCI  24
ALBERT LEA     FOG       36  36 100 S5        29.78F VSB 1/2
$$
MNZ078>079-086>088-094>096-221700-
   Southeast Minnesota

CITY           SKY/WX    TMP DP  RH WIND       PRES   REMARKS
ROCHESTER      FOG       35  34  96 SW15      29.79S VSB 1/4 WCI  25
RED WING         N/A     36  34  93 SW7       29.78F FOG
STANTON        CLOUDY    36  33  91 SW12      29.77S FOG
DODGE CENTER   FOG       36  36 100 SW16      29.76F VSB 3/4
WINONA         CLOUDY    37  36  93 SW5       29.82S
AUSTIN         FOG       34  34 100 S9        29.79F VSB 1/4 WCI  26
PRESTON        FOG       33  33  98 S12       29.80F VSB<1/4 WCI  25
$$
ABBREVIATIONS USED IN REMARKS
   TC - TEMPERATURES IN CELSIUS
  WCI - WIND CHILL INDEX
   HX - HEAT INDEX
  VSB - VISIBILITY
$$


USA.gov is the U.S. government's official web portal to all federal, state and local government web resources and services.